Starlink 5754

operational
NORAD ID: 55579 Int'l Des: 2023-020 Owner: SPXS Country: US Constellation: starlink
LEOCIRCULAR

About Starlink 5754

Description loading...

Live Position

Loading 3D Globe...

Upcoming Passes

Altitude History

Altitude vs Time

uPlot chart will show altitude changes over time

Two-Line Element Set

1 55579U 23020L 25302.48502044 -.00000686 00000-0 -35691-4 0 9997
2 55579 43.0041 357.4904 0001176 273.7724 86.2984 15.02533928149182
Epoch: Oct 29, 2025 • Age: 16 hours

Current Status

Altitude 560.8 km
Velocity 7.58 km/s
Sub-Earth Point -11.71°S, 110.37°W
Launch Date Feb 12, 2023
Age 2.7 years
Type internet

Technical Details

Classification Payload
Mass 305.00 kg
Dry Mass 290.00 kg
Total Mass 305.00 kg
Length 0.20 m
Diameter 2.80 m
Span 9.00 m
Shape Box + pan
Manufacturer SPXS
Bus Type Starlink
Phase Status In Orbit
Owner/State SPXS/US

Large Constellations

Loading constellations...